Accueil
METAR-TAF:

METAR-TAF

Aéroports :

Wajima, Japon

Aéroport de Noto

latitude: 37-17-36N, longitude: 136-57-44E, altitude: 219 m

Observation

Le bulletin a été fait il y a 1 heure et 32 minutes, à 10:00 UTC
Vent 5 kt de est/nord-est
Température 13°C
Humidité 72%
Pression 1018 hPa
Visibilité 10 km ou plus
Quelques nuages à une hauteur de 3000 ft
Nuages épars à une hauteur de 6000 ft
Nuages fragmentés à une hauteur de 7000 ft

METAR: RJNW 231000Z 06005KT 9999 FEW030 SCT060 BKN070 13/08 Q1018

Heure: 20:32 (11:32 UTC)


TAF: absent

Observations et prévisions météorologiques de plus de 4000 aéroports (messages METAR et TAF).

Les stations disponibles sont représentées par des disques jaunes et rouges sur la carte.

Passer la souris dessus pour voir le nom de la station.

Cliquer dessus pour voir les observations et prévisions météorologiques.

Pour changer de carte: cliquez sur les boutons verts avec une croix noire pour zoomer, sur le bouton vert avec un tiret pour effectuer un zoom arrière, ou sur les flèches vertes pour les cartes adjacentes.


METAR-TAF: